Hourly Weather Alpenrod

Today, 8 August, Saturday

Time Temperature Precipitation Wind Pressure Humidity
00:00 +22°C° 0 mm 1 mps 727 mmHg 67%
01:00 +22°C° 0 mm 1 mps 727 mmHg 69%
02:00 +21°C° 0 mm 1 mps 727 mmHg 70%
03:00 +21°C° 0 mm 1 mps 727 mmHg 72%
04:00 +21°C° 0 mm 1 mps 727 mmHg 73%
05:00 +20°C° 0 mm 0 mps 727 mmHg 71%
06:00 +21°C° 0 mm 0 mps 727 mmHg 70%
07:00 +22°C° 0 mm 0 mps 728 mmHg 63%
08:00 +24°C° 0 mm 0 mps 728 mmHg 57%
09:00 +27°C° 0 mm 0 mps 728 mmHg 51%
10:00 +31°C° 0 mm 1 mps 728 mmHg 45%
11:00 +33°C° 0 mm 1 mps 728 mmHg 41%
12:00 +34°C° 0 mm 1 mps 728 mmHg 37%
13:00 +33°C° 0 mm 0 mps 728 mmHg 33%
14:00 +34°C° 0 mm 1 mps 728 mmHg 33%
15:00 +34°C° 0 mm 1 mps 728 mmHg 34%
16:00 +33°C° 0 mm 1 mps 727 mmHg 35%
17:00 +32°C° 0 mm 1 mps 727 mmHg 41%
18:00 +30°C° 0 mm 1 mps 727 mmHg 48%
19:00 +26°C° 0 mm 0 mps 727 mmHg 54%
20:00 +27°C° 0 mm 1 mps 727 mmHg 57%
21:00 +25°C° 0 mm 1 mps 727 mmHg 59%
22:00 +24°C° 0 mm 1 mps 727 mmHg 61%
23:00 +23°C° 0 mm 1 mps 727 mmHg 63%

Tomorrow, 9 August, Sunday

Time Temperature Precipitation Wind Pressure Humidity
00:00 +23°C° 0 mm 1 mps 726 mmHg 64%
01:00 +22°C° 0 mm 1 mps 726 mmHg 66%
02:00 +22°C° 0 mm 1 mps 726 mmHg 67%
03:00 +22°C° 0 mm 1 mps 726 mmHg 69%
04:00 +19°C° 0 mm 0 mps 726 mmHg 70%
05:00 +20°C° 0 mm 0 mps 726 mmHg 69%
06:00 +21°C° 0 mm 0 mps 726 mmHg 68%
07:00 +22°C° 0 mm 0 mps 726 mmHg 66%
08:00 +26°C° 0 mm 1 mps 726 mmHg 59%
09:00 +29°C° 0 mm 1 mps 727 mmHg 52%
10:00 +31°C° 0 mm 1 mps 727 mmHg 45%
11:00 +32°C° 0 mm 1 mps 727 mmHg 41%
12:00 +33°C° 0 mm 1 mps 726 mmHg 36%
13:00 +34°C° 0 mm 1 mps 726 mmHg 32%
14:00 +33°C° 0 mm 1 mps 726 mmHg 35%
15:00 +33°C° 0 mm 1 mps 726 mmHg 38%
16:00 +32°C° 0 mm 1 mps 726 mmHg 40%
17:00 +30°C° 0.1 mm 1 mps 725 mmHg 47%
18:00 +28°C° 0.1 mm 2 mps 725 mmHg 54%
19:00 +26°C° 0.1 mm 2 mps 725 mmHg 61%
20:00 +25°C° 0.1 mm 2 mps 725 mmHg 65%
21:00 +24°C° 0.1 mm 2 mps 725 mmHg 69%
22:00 +21°C° 0.1 mm 2 mps 725 mmHg 73%
23:00 +22°C° 0.2 mm 1 mps 725 mmHg 76%

Day after tomorrow, 10 August, Monday

Time Temperature Precipitation Wind Pressure Humidity
00:00 +21°C° 0.2 mm 1 mps 724 mmHg 78%
01:00 +20°C° 0.2 mm 1 mps 724 mmHg 81%
02:00 +20°C° 0.1 mm 1 mps 724 mmHg 82%
03:00 +20°C° 0.1 mm 1 mps 724 mmHg 82%
04:00 +20°C° 0.1 mm 1 mps 724 mmHg 83%
05:00 +21°C° 0.3 mm 1 mps 724 mmHg 83%
06:00 +21°C° 0.3 mm 1 mps 724 mmHg 82%
07:00 +22°C° 0.3 mm 1 mps 724 mmHg 82%
08:00 +24°C° 0 mm 1 mps 724 mmHg 73%
09:00 +26°C° 0 mm 1 mps 725 mmHg 63%
10:00 +29°C° 0 mm 1 mps 725 mmHg 54%
11:00 +30°C° 0 mm 1 mps 725 mmHg 48%
12:00 +31°C° 0 mm 1 mps 725 mmHg 43%
13:00 +33°C° 0 mm 1 mps 725 mmHg 37%
14:00 +32°C° 0 mm 1 mps 724 mmHg 38%
15:00 +32°C° 0 mm 1 mps 724 mmHg 39%
16:00 +32°C° 0 mm 1 mps 724 mmHg 40%
17:00 +30°C° 0 mm 1 mps 724 mmHg 46%
18:00 +29°C° 0 mm 1 mps 724 mmHg 52%
19:00 +27°C° 0 mm 1 mps 724 mmHg 58%
20:00 +26°C° 0 mm 1 mps 724 mmHg 62%
21:00 +24°C° 0 mm 1 mps 724 mmHg 65%
22:00 +23°C° 0 mm 1 mps 724 mmHg 69%
23:00 +22°C° 0 mm 1 mps 724 mmHg 71%

11 August, Tuesday

Time Temperature Precipitation Wind Pressure Humidity
00:00 +22°C° 0 mm 1 mps 724 mmHg 73%
01:00 +21°C° 0 mm 1 mps 724 mmHg 76%
02:00 +21°C° 0 mm 1 mps 724 mmHg 77%
03:00 +21°C° 0 mm 1 mps 724 mmHg 78%
04:00 +20°C° 0 mm 1 mps 723 mmHg 79%
05:00 +21°C° 0 mm 1 mps 724 mmHg 77%
06:00 +22°C° 0 mm 1 mps 724 mmHg 76%
07:00 +23°C° 0 mm 1 mps 724 mmHg 74%
08:00 +25°C° 0 mm 1 mps 724 mmHg 67%
09:00 +27°C° 0 mm 1 mps 725 mmHg 59%
10:00 +29°C° 0 mm 2 mps 725 mmHg 52%
11:00 +30°C° 0.1 mm 2 mps 725 mmHg 48%
12:00 +31°C° 0.1 mm 2 mps 725 mmHg 44%
13:00 +32°C° 0.1 mm 1 mps 725 mmHg 40%
14:00 +32°C° 0.1 mm 2 mps 725 mmHg 42%
15:00 +31°C° 0.1 mm 2 mps 724 mmHg 44%
16:00 +31°C° 0.1 mm 2 mps 724 mmHg 46%
17:00 +30°C° 0 mm 2 mps 724 mmHg 50%
18:00 +29°C° 0 mm 2 mps 724 mmHg 55%
19:00 +27°C° 0 mm 2 mps 724 mmHg 60%
20:00 +26°C° 0 mm 2 mps 724 mmHg 63%
21:00 +25°C° 0 mm 2 mps 724 mmHg 66%
22:00 +23°C° 0 mm 2 mps 724 mmHg 69%
23:00 +23°C° 0 mm 2 mps 724 mmHg 71%

12 August, Wednesday

Time Temperature Precipitation Wind Pressure Humidity
00:00 +21°C° 0 mm 2 mps 724 mmHg 74%
01:00 +21°C° 0 mm 2 mps 724 mmHg 76%
02:00 +20°C° 0 mm 2 mps 723 mmHg 79%
03:00 +20°C° 0 mm 1 mps 723 mmHg 81%
04:00 +20°C° 0 mm 1 mps 723 mmHg 84%
05:00 +20°C° 0 mm 2 mps 723 mmHg 81%
06:00 +20°C° 0 mm 2 mps 723 mmHg 78%
07:00 +21°C° 0 mm 2 mps 723 mmHg 75%
08:00 +24°C° 0 mm 3 mps 724 mmHg 69%
09:00 +26°C° 0 mm 3 mps 724 mmHg 62%
10:00 +28°C° 0 mm 4 mps 724 mmHg 56%
11:00 +29°C° 0 mm 4 mps 724 mmHg 51%
12:00 +30°C° 0 mm 4 mps 724 mmHg 46%
13:00 +32°C° 0 mm 4 mps 723 mmHg 41%
14:00 +32°C° 0 mm 4 mps 723 mmHg 40%
15:00 +32°C° 0 mm 4 mps 723 mmHg 39%
16:00 +32°C° 0 mm 4 mps 722 mmHg 38%
17:00 +30°C° 0 mm 4 mps 722 mmHg 43%
18:00 +28°C° 0 mm 3 mps 722 mmHg 47%
19:00 +27°C° 0 mm 3 mps 721 mmHg 51%
20:00 +26°C° 0 mm 3 mps 721 mmHg 53%
21:00 +24°C° 0 mm 3 mps 721 mmHg 54%
22:00 +22°C° 0 mm 3 mps 721 mmHg 56%
23:00 +21°C° 0.1 mm 2 mps 721 mmHg 60%

13 August, Thursday

Time Temperature Precipitation Wind Pressure Humidity
00:00 +21°C° 0.1 mm 2 mps 721 mmHg 65%
01:00 +20°C° 0.1 mm 2 mps 721 mmHg 70%
02:00 +19°C° 1 mm 2 mps 721 mmHg 77%
03:00 +20°C° 1 mm 1 mps 721 mmHg 83%
04:00 +19°C° 1 mm 1 mps 721 mmHg 90%
05:00 +20°C° 0.5 mm 1 mps 721 mmHg 90%
06:00 +20°C° 0.5 mm 1 mps 721 mmHg 90%
07:00 +20°C° 0.5 mm 1 mps 722 mmHg 91%
08:00 +21°C° 0 mm 2 mps 722 mmHg 84%
09:00 +23°C° 0 mm 2 mps 723 mmHg 77%
10:00 +25°C° 0 mm 3 mps 723 mmHg 71%
11:00 +25°C° 0.7 mm 3 mps 723 mmHg 70%
12:00 +26°C° 0.7 mm 3 mps 723 mmHg 69%
13:00 +26°C° 0.7 mm 3 mps 723 mmHg 68%
14:00 +27°C° 0.2 mm 2 mps 723 mmHg 62%
15:00 +27°C° 0.2 mm 2 mps 723 mmHg 56%
16:00 +28°C° 0.2 mm 2 mps 723 mmHg 50%
17:00 +26°C° 0 mm 2 mps 723 mmHg 55%
18:00 +25°C° 0 mm 2 mps 723 mmHg 60%
19:00 +24°C° 0 mm 1 mps 723 mmHg 65%
20:00 +23°C° 0 mm 1 mps 723 mmHg 68%
21:00 +21°C° 0 mm 1 mps 724 mmHg 70%
22:00 +18°C° 0 mm 0 mps 724 mmHg 73%
23:00 +20°C° 0 mm 1 mps 724 mmHg 74%
Show more